Location: Siloam Springs
(36.1880°N, 94.5400°W)
Time: 02:20:58
(UTC-06:00)

ISS - Visible Passes

Search period start: 19 February 2019 00:00
Search period end: 01 March 2019 00:00
Orbit: 403 x 411 km, 51.6° (Epoch: 19 February)

Date Brightness Start Highest point End Pass type
(mag) Time Alt. Az. Time Alt. Az. Time Alt. Az.
21 Feb -0.8 05:47:52 10° SSE 05:49:42 14° SE 05:51:32 10° E visible
22 Feb -3.8 06:31:10 10° SW 06:34:25 87° SE 06:37:42 10° NE visible
23 Feb -2.6 05:40:16 12° SSW 05:42:59 39° SE 05:46:04 10° ENE visible
24 Feb -1.4 04:51:41 19° SE 04:51:41 19° SE 04:54:02 10° E visible
24 Feb -3.0 06:24:57 10° WSW 06:27:57 34° NW 06:30:59 10° NNE visible
25 Feb -3.9 05:35:35 45° WSW 05:36:23 67° NW 05:39:38 10° NE visible
26 Feb -1.5 04:46:33 24° ENE 04:46:33 24° ENE 04:48:05 10° ENE visible
26 Feb -1.9 06:19:24 10° WNW 06:21:37 17° NNW 06:23:51 10° NNE visible
27 Feb -2.5 05:30:04 26° NNW 05:30:04 26° NNW 05:32:44 10° NNE visible
28 Feb -1.0 04:40:45 15° NE 04:40:45 15° NE 04:41:25 10° NE visible
